THORAD AGENA D DEB, 6167

Orbit data source: Space-Track

THORAD AGENA D DEB, 6167 is space debris in SSO originally from a launch on Wed, 08 Apr 1970 UTC launched from the Air Force Western Test Range (AFWTR). Debris objects in space refer to the collection of defunct objects orbiting the Earth. Examples of debris include non-operational satellites, rocket bodies, and fragments generated from explosions, collisions, or faulty payload assembly.

Loading next visibility...
Identifier
6167, 1970-025NB
Orbit
SSO
Country
Flag of USUS
Related business
Manufacturer
Unknown
Mission
Spacecraft
Bus & Motor
Unknown
Mass
Unknown
Launch date (UTC)
1970-04-08 (56 years ago)
Launch vehicle
Unknown
Launch site
Air Force Western Test Range (AFWTR)
Object type
Payload
Rocket body
Debris
Shape & HBR
Unknown shape, 0.1 m
Radar Cross Section
Medium (>0.1 m² and <1 m²)

Expand to show TLE details & history
Last TLE update: 7 hours ago

TLE from 7 hours ago
0 THORAD AGENA D DEB
1 06167U 70025NB  26256.56717008  .00000279  00000-0  37702-3 0  9999
2 06167 100.1180 280.4672 0032929 103.2747  60.5146 13.69148464807453
Epoch: 2026-09-13T13:36Z
TLE epoch observation values (Epoch: 2026-09-13T13:36:43.494Z)
Latitude
15.60863°
Longitude
-93.43126°
Altitude
992.845 km
Speed
7.362 km/s
True Right ascension
06h 53m 14s
True Declination
15° 31' 21"
Sunlit
Object was in daylight at epoch
Visualization orbit readout
Latitude
Unknown
Longitude
Unknown
Altitude
Unknown
Speed
Unknown
Apparent Right ascension
Unknown
Apparent Declination
Unknown
Sunlit
N/A
Visualization observer readout
Local Sidereal Time
13:34:52
Azimuth
Unknown
Elevation
Unknown
Doppler factor
Unknown
Orbital elements
Apogee altitude
1,024.223 km
Perigee altitude
975.632 km
Semi-major axis
7,378.065 km
Eccentricity
0.00329
Inclination
100.118°
RAAN
280.4672°
Arg. of periapsis
103.2747°
True anomaly
60.84373°
Mean anomaly
60.5146°
Eccentric anomaly
60.6791°
Mean motion
3.42475 °/min
Orbital period
105.12 mins
BSTAR
0.00037702
Loading maneuver chart data...
Computing Atmospheric mass density...

Documentation

Showing up to 5 results
|